Retour au catalogue

USA 194 DEB

ActifLEO
NORAD 31708·DEBRIS·🇺🇸 United States

Lancé Jun 15, 2007 depuis Cape Canaveral Space Force Station

Loading…

Prochains Passages (prochaines 24 heures)

TLE

PériméSource: Mike McCants

Époque: Sep 3, 2026, 19:18 UTC

1 31708U 07027C   26246.80452478 0.00000000  00000-0  00000-0 0    06
2 31708  63.3733 124.6866 0464020  24.7492 335.2508 13.40991912    08

Suivez USA 194 DEB en temps réel avec AllMySat

Download on the App Store